#timestamp,LO_Frequency,Hit,StdDev 
1587204015.7,286046996.5,N
1587204035.5,286046997.6,N
1587204055.3,286046995.4,N
1587204075.2,286046995.4,N
1587204095.0,286046998.5,N
1587204095.9,286046998.5,N
1587204115.8,286047001.2,N
1587204135.6,286046997.5,N
1587204155.4,286046996.0,N
1587204175.3,286046996.1,N
1587204195.1,286046992.5,N
1587204215.9,286046988.5,Y
1587204235.7,286046992.5,P
1587204255.5,286046993.9,N
1587204275.4,286046996.2,N
1587204295.2,286046996.6,N
1587204315.0,286046999.0,N
1587204315.9,286046999.0,N
1587204335.8,286046999.0,N
1587204355.6,286046999.1,N
1587204375.5,286046996.8,N
1587204395.3,286046997.8,N
1587204415.1,286046998.3,N
1587204435.9,286046999.0,N
1587204455.7,286046998.8,N
1587204475.6,286046998.9,N
1587204495.4,286046998.8,N
1587204515.2,286046999.6,N
1587204535.1,286046999.1,N
1587204536.0,286046999.1,N
1587204555.8,286046997.8,N
1587204575.7,286046997.2,N
1587204595.5,286046997.9,N
1587204615.3,286046997.2,N
1587204635.2,286046996.9,N
1587204655.0,286046997.4,N
1587204655.9,286046997.4,N
1587204675.7,286046996.7,N
1587204695.6,286046997.4,N
1587204715.4,286046997.9,N
1587204735.3,286046995.2,Y
1587204755.1,286046998.2,P
1587204775.8,286046998.6,P
1587204795.7,286046999.3,N
1587204815.5,286046999.2,N
1587204835.4,286046996.9,Y
1587204855.2,286046998.1,P
1587204875.0,286047000.2,N
1587204875.9,286047000.2,N
1587204895.8,286047002.2,N
1587204915.6,286047000.4,N
1587204935.5,286047000.7,N
1587204955.3,286046998.5,N
1587204975.1,286046998.4,N
1587204995.9,286046999.5,N
1587205015.7,286047008.6,Y
1587205035.6,286047007.3,P
1587205055.4,286047001.3,N
1587205075.2,286046996.5,N
1587205095.1,286046999.4,N
1587205096.0,286046999.4,N
1587205115.8,286046995.8,N
1587205135.6,286046994.9,N
1587205155.5,286046996.8,N
1587205175.3,286046999.2,N
1587205195.2,286046998.4,N
1587205215.9,286047002.7,N
1587205235.7,286047000.2,N
1587205255.6,286047001.8,N
1587205275.4,286047002.6,N
1587205295.3,286046999.8,N
1587205315.1,286047001.9,N
1587205316.0,286047001.9,N
1587205335.8,286046999.7,N
1587205355.7,286047002.1,N
1587205375.5,286046999.8,N
1587205395.4,286046998.1,N
1587205415.2,286047000.2,N
1587205435.0,286046998.2,N
1587205435.9,286046998.2,N
1587205455.8,286046999.7,N
1587205475.6,286047002.0,N
1587205495.5,286047001.5,N
1587205515.3,286046999.7,N
1587205535.1,286047002.2,N
1587205555.9,286046999.9,N
1587205575.7,286047001.0,N
1587205595.5,286046999.9,N
1587205615.4,286047004.3,N
1587205635.2,286047002.0,N
1587205655.1,286047000.3,N
1587205656.0,286047000.3,N
1587205675.8,286046997.4,N
1587205695.6,286046997.5,N
1587205715.5,286046996.5,N
1587205735.3,286046997.5,N
1587205755.1,286046996.8,N
1587205775.9,286046997.0,N
1587205795.7,286046998.8,N
1587205815.6,286046998.6,N
1587205835.4,286047000.0,N
1587205855.2,286047002.3,N
1587205875.1,286046999.7,N
1587205876.0,286046999.7,N
1587205895.8,286047000.2,N
1587205915.7,286047000.7,N
1587205935.5,286047000.3,N
1587205955.3,286047001.2,N
1587205975.2,286046998.1,N
1587205995.0,286047000.0,N
1587205995.9,286047000.0,N
1587206015.7,286047000.7,N
1587206035.6,286047002.0,N
1587206055.4,286047002.3,N
1587206075.3,286047002.7,N
1587206095.1,286046998.2,N
1587206115.8,286046997.3,N
1587206135.7,286046999.5,N
1587206155.5,286046998.9,N
1587206175.4,286047000.5,N
1587206195.2,286047000.7,N
1587206215.0,286047000.3,N
1587206215.9,286047000.3,N
1587206235.8,286047002.4,N
1587206255.6,286046999.2,N
1587206275.5,286047001.1,N
1587206295.3,286047004.3,N
1587206315.1,286047001.4,N
1587206335.9,286047001.9,N
1587206355.7,286047004.4,N
1587206375.5,286047001.9,N
1587206395.4,286047001.4,N
1587206415.2,286047000.5,N
1587206435.1,286047000.3,N
1587206436.0,286047000.3,N
1587206455.8,286047002.7,N
1587206475.6,286047000.2,N
1587206495.5,286047000.5,N
1587206515.3,286047000.5,N
1587206535.2,286046999.7,N
1587206555.9,286047003.7,N
1587206575.7,286047003.3,N
1587206595.6,286047005.4,Y
1587206615.4,286047002.1,P
1587206635.3,286047002.1,P
1587206655.1,286047002.8,P
1587206656.0,286047002.8,Y
1587206675.8,286046999.4,P
1587206695.7,286046997.2,N
1587206715.5,286046997.6,N
1587206735.3,286046998.4,N
1587206755.2,286046999.4,N
1587206775.0,286046999.2,N
1587206775.9,286046999.2,N
1587206795.8,286046996.8,N
1587206815.6,286046997.3,N
1587206835.4,286046997.2,N
1587206855.3,286046996.6,N
1587206875.1,286047001.0,N
1587206895.9,286047001.1,N
1587206915.7,286046999.5,N
1587206935.5,286046997.1,N
1587206955.4,286046997.3,N
1587206975.2,286046995.3,N
1587206995.1,286046997.1,N
1587206996.0,286046997.1,N
1587207015.8,286046995.0,N
1587207035.6,286046997.8,N
1587207055.5,286046997.5,N
1587207075.3,286046995.5,N
1587207095.1,286046995.4,N
1587207115.9,286046997.5,N
1587207135.7,286046995.4,N
1587207155.6,286046997.3,N
1587207175.4,286046997.1,N
1587207195.2,286046998.9,N
1587207215.1,286046996.5,N
1587207216.0,286046996.5,N
1587207235.8,286046997.2,N
1587207255.7,286046997.1,N
1587207275.5,286046995.4,Y
1587207295.3,286046999.0,P
1587207315.2,286046998.9,N
1587207335.0,286046996.9,P
1587207335.9,286046996.9,Y
1587207355.8,286046998.5,P
1587207375.6,286047000.5,N
1587207395.4,286046999.1,N
1587207415.3,286046994.9,Y
1587207435.1,286046999.5,P
1587207455.9,286046998.7,P
1587207475.7,286047000.5,N
1587207495.5,286047000.2,N
1587207515.4,286046999.7,N
1587207535.2,286047002.3,Y
1587207555.1,286047002.0,P
1587207556.0,286047002.0,N
1587207575.8,286046999.9,N
1587207595.6,286047000.9,N
